WJA501 CYEG-CYYJ

Flight info

Callsign WJA501
Flight time N/A
Altitude 34000
Route ANDIE Q860 MERYT DCT BOOTH APASS8
Aircraft B738/M-SDE2E3FGHIRWXY/LB1

Departure

Time 2026-04-30 20:09
Airport Edmonton International Airport (CYEG)

Arrival

Time N/A
Airport Victoria International Airport (CYYJ)
Time Latitude Longitude Altitude Speed Heading
2026-04-30 19:55 53.30604 -113.58483 2338 ft 0 kts 70°
2026-04-30 19:58 53.30603 -113.58486 2338 ft 1 kts 70°
2026-04-30 19:58 53.30598 -113.58509 2338 ft 2 kts 69°
2026-04-30 19:59 53.30593 -113.58533 2337 ft 2 kts 70°
2026-04-30 19:59 53.30588 -113.58556 2337 ft 2 kts 69°
2026-04-30 19:59 53.30578 -113.58604 2335 ft 2 kts 71°
2026-04-30 20:00 53.30576 -113.58616 2335 ft 2 kts 91°
2026-04-30 20:00 53.30580 -113.58640 2335 ft 2 kts 117°
2026-04-30 20:00 53.30584 -113.58652 2335 ft 0 kts 131°
2026-04-30 20:00 53.30589 -113.58660 2334 ft 0 kts 134°
2026-04-30 20:01 53.30583 -113.58650 2335 ft 5 kts 134°
2026-04-30 20:02 53.30468 -113.58456 2340 ft 13 kts 135°
2026-04-30 20:02 53.30392 -113.58324 2343 ft 18 kts 134°
2026-04-30 20:03 53.30168 -113.57949 2350 ft 23 kts 133°
2026-04-30 20:03 53.30030 -113.57893 2351 ft 20 kts 179°
2026-04-30 20:03 53.29897 -113.57867 2351 ft 18 kts 145°
2026-04-30 20:03 53.29802 -113.57713 2354 ft 23 kts 135°
2026-04-30 20:04 53.29572 -113.57333 2359 ft 57 kts 133°
2026-04-30 20:04 53.29344 -113.56948 2363 ft 43 kts 135°
2026-04-30 20:04 53.29135 -113.56597 2365 ft 41 kts 134°
2026-04-30 20:05 53.28862 -113.56243 2366 ft 0 kts 182°
2026-04-30 20:05 53.28850 -113.56244 2366 ft 5 kts 182°
2026-04-30 20:06 53.28814 -113.56245 2366 ft 4 kts 179°
2026-04-30 20:06 53.28786 -113.56245 2366 ft 3 kts 180°
2026-04-30 20:06 53.28764 -113.56250 2367 ft 2 kts 200°
2026-04-30 20:06 53.28733 -113.56282 2367 ft 9 kts 216°
2026-04-30 20:07 53.28731 -113.56402 2367 ft 14 kts 315°
2026-04-30 20:07 53.28782 -113.56485 2367 ft 6 kts 315°
2026-04-30 20:07 53.28792 -113.56501 2367 ft 0 kts 315°
2026-04-30 20:08 53.28795 -113.56506 2367 ft 2 kts 315°
2026-04-30 20:08 53.28917 -113.56712 2366 ft 58 kts 314°
2026-04-30 20:08 53.29370 -113.57463 2359 ft 122 kts 314°
2026-04-30 20:08 53.30091 -113.58680 2361 ft 172 kts 314°
2026-04-30 20:09 53.30961 -113.60053 2988 ft 172 kts 316°
2026-04-30 20:09 53.31826 -113.61413 3620 ft 176 kts 315°
2026-04-30 20:09 53.33398 -113.64531 4718 ft 170 kts 276°
2026-04-30 20:10 53.32331 -113.67741 5730 ft 183 kts 227°
2026-04-30 20:10 53.31422 -113.69362 6289 ft 190 kts 227°
2026-04-30 20:10 53.30516 -113.70971 6765 ft 193 kts 230°
2026-04-30 20:11 53.28929 -113.74520 7725 ft 198 kts 234°
2026-04-30 20:11 53.28135 -113.76284 8185 ft 201 kts 233°
2026-04-30 20:11 53.27276 -113.78134 8684 ft 205 kts 233°
2026-04-30 20:12 53.25503 -113.81934 9667 ft 215 kts 234°
2026-04-30 20:12 53.24570 -113.83933 10170 ft 224 kts 234°
2026-04-30 20:12 53.23596 -113.86023 10661 ft 238 kts 234°
2026-04-30 20:13 53.22541 -113.88284 11162 ft 252 kts 234°
2026-04-30 20:13 53.21446 -113.90621 11660 ft 265 kts 234°
2026-04-30 20:13 53.20282 -113.93102 12171 ft 280 kts 234°
2026-04-30 20:13 53.19119 -113.95576 12731 ft 292 kts 234°
2026-04-30 20:14 53.17849 -113.98283 13217 ft 307 kts 234°
2026-04-30 20:14 53.16510 -114.01135 13687 ft 322 kts 234°
2026-04-30 20:14 53.15088 -114.04158 14156 ft 338 kts 234°
2026-04-30 20:14 53.13622 -114.07270 14607 ft 353 kts 234°
2026-04-30 20:15 53.12087 -114.10523 15033 ft 367 kts 234°
2026-04-30 20:15 53.10486 -114.13905 15709 ft 374 kts 234°
2026-04-30 20:15 53.09417 -114.16157 16196 ft 377 kts 234°
2026-04-30 20:15 53.07663 -114.19851 17002 ft 380 kts 234°
2026-04-30 20:16 53.06012 -114.23325 17714 ft 384 kts 234°
2026-04-30 20:16 53.04353 -114.26817 18357 ft 389 kts 234°
2026-04-30 20:16 53.02683 -114.30325 19047 ft 392 kts 234°
2026-04-30 20:16 53.00987 -114.33883 19694 ft 396 kts 234°
2026-04-30 20:17 52.99276 -114.37470 20326 ft 399 kts 235°
2026-04-30 20:17 52.97579 -114.41124 20960 ft 402 kts 237°
2026-04-30 20:17 52.95953 -114.44946 21566 ft 405 kts 239°
2026-04-30 20:17 52.94394 -114.48807 22172 ft 408 kts 240°
2026-04-30 20:18 52.92837 -114.52721 22754 ft 411 kts 240°
2026-04-30 20:18 52.91256 -114.56682 23309 ft 415 kts 240°
2026-04-30 20:18 52.89655 -114.60667 23853 ft 419 kts 240°
2026-04-30 20:18 52.88013 -114.64723 24391 ft 422 kts 239°
2026-04-30 20:19 52.86357 -114.68792 24847 ft 427 kts 239°
2026-04-30 20:19 52.85331 -114.71304 25156 ft 429 kts 239°
2026-04-30 20:19 52.83087 -114.76772 25833 ft 433 kts 238°
2026-04-30 20:19 52.81377 -114.80920 26267 ft 437 kts 238°
2026-04-30 20:20 52.79661 -114.85072 26747 ft 440 kts 238°
2026-04-30 20:20 52.77931 -114.89248 27163 ft 444 kts 238°
2026-04-30 20:20 52.76184 -114.93458 27598 ft 447 kts 238°
2026-04-30 20:20 52.74420 -114.97701 28048 ft 449 kts 238°
2026-04-30 20:21 52.72666 -115.01911 28489 ft 452 kts 238°
2026-04-30 20:21 52.70882 -115.06187 29091 ft 450 kts 238°
2026-04-30 20:21 52.69099 -115.10453 29675 ft 449 kts 238°
2026-04-30 20:21 52.67346 -115.14641 30199 ft 448 kts 238°
2026-04-30 20:22 52.65553 -115.18917 30691 ft 448 kts 238°
2026-04-30 20:22 52.63798 -115.23095 31255 ft 446 kts 238°
2026-04-30 20:22 52.62035 -115.27286 31779 ft 445 kts 238°
2026-04-30 20:22 52.60272 -115.31472 32254 ft 445 kts 238°
2026-04-30 20:23 52.58509 -115.35651 32651 ft 446 kts 238°
2026-04-30 20:23 52.56691 -115.39954 33065 ft 446 kts 238°
2026-04-30 20:23 52.54903 -115.44177 33501 ft 446 kts 238°
2026-04-30 20:23 52.53095 -115.48438 33942 ft 446 kts 238°
2026-04-30 20:24 52.51280 -115.52712 34109 ft 449 kts 238°
2026-04-30 20:24 52.47685 -115.61159 34117 ft 445 kts 238°
2026-04-30 20:25 52.42343 -115.73655 34128 ft 447 kts 237°
2026-04-30 20:26 52.36938 -115.86234 34142 ft 446 kts 237°
2026-04-30 20:26 52.31602 -115.98596 34152 ft 446 kts 237°
2026-04-30 20:27 52.23529 -116.13944 34168 ft 448 kts 232°
2026-04-30 20:28 52.16409 -116.30522 34175 ft 444 kts 238°
2026-04-30 20:30 52.07745 -116.51211 34202 ft 443 kts 237°
2026-04-30 20:31 51.97318 -116.75308 34209 ft 442 kts 236°
2026-04-30 20:32 51.88547 -116.95345 34206 ft 442 kts 236°
2026-04-30 20:33 51.83315 -117.07225 34202 ft 442 kts 236°
2026-04-30 20:34 51.77960 -117.19325 34198 ft 442 kts 236°
2026-04-30 20:35 51.72593 -117.31396 34214 ft 442 kts 236°
2026-04-30 20:35 51.67181 -117.43372 34219 ft 441 kts 235°
2026-04-30 20:36 51.63559 -117.51242 34206 ft 437 kts 234°
2026-04-30 20:37 51.58091 -117.63091 34211 ft 441 kts 234°
2026-04-30 20:37 51.54431 -117.71001 34195 ft 441 kts 234°
2026-04-30 20:38 51.50873 -117.78675 34177 ft 441 kts 234°
2026-04-30 20:38 51.47290 -117.86382 34174 ft 441 kts 234°
2026-04-30 20:39 51.41835 -117.98074 34175 ft 439 kts 234°
2026-04-30 20:40 51.37436 -118.07468 34181 ft 439 kts 234°
2026-04-30 20:40 51.33778 -118.15253 34204 ft 435 kts 233°
2026-04-30 20:41 51.30253 -118.22729 34206 ft 421 kts 233°
2026-04-30 20:41 51.28708 -118.26001 34203 ft 428 kts 233°
2026-04-30 20:41 51.25010 -118.33812 34204 ft 441 kts 233°
2026-04-30 20:42 51.21320 -118.41582 34206 ft 436 kts 233°
2026-04-30 20:43 51.15821 -118.53119 34193 ft 435 kts 233°
2026-04-30 20:43 51.12189 -118.60709 34196 ft 435 kts 233°
2026-04-30 20:44 51.06788 -118.71961 34177 ft 436 kts 232°
2026-04-30 20:45 50.99640 -118.86769 34147 ft 435 kts 233°
2026-04-30 20:45 50.95999 -118.94284 34129 ft 416 kts 233°
2026-04-30 20:46 50.90625 -119.05335 34133 ft 433 kts 233°
2026-04-30 20:46 50.88775 -119.09129 34137 ft 436 kts 232°
2026-04-30 20:47 50.83367 -119.20180 34136 ft 433 kts 232°
2026-04-30 20:48 50.77823 -119.31469 34128 ft 432 kts 233°
2026-04-30 20:48 50.74133 -119.38949 34139 ft 432 kts 233°
2026-04-30 20:49 50.70448 -119.46397 34146 ft 431 kts 233°
2026-04-30 20:50 50.64916 -119.57546 34146 ft 430 kts 233°
2026-04-30 20:50 50.61240 -119.64933 34138 ft 429 kts 233°
2026-04-30 20:51 50.57635 -119.72153 34134 ft 430 kts 232°
2026-04-30 20:51 50.52236 -119.82913 34150 ft 430 kts 232°
2026-04-30 20:52 50.48543 -119.90251 34163 ft 428 kts 232°
2026-04-30 20:53 50.42998 -120.01244 34166 ft 429 kts 232°
2026-04-30 20:53 50.39296 -120.08551 34163 ft 427 kts 232°
2026-04-30 20:54 50.33770 -120.19425 34158 ft 426 kts 233°
2026-04-30 20:55 50.28264 -120.30227 34159 ft 423 kts 233°
2026-04-30 20:55 50.24579 -120.37426 34158 ft 421 kts 232°
2026-04-30 20:56 50.19114 -120.48051 34157 ft 419 kts 232°
2026-04-30 20:57 50.13638 -120.58662 34160 ft 417 kts 232°
2026-04-30 20:57 50.09988 -120.65713 34163 ft 418 kts 232°
2026-04-30 20:58 50.04656 -120.75984 34166 ft 415 kts 231°
2026-04-30 20:58 50.01060 -120.82881 34162 ft 415 kts 231°
2026-04-30 20:59 49.95623 -120.93288 34159 ft 416 kts 232°
2026-04-30 21:00 49.89378 -121.08292 34165 ft 415 kts 240°
2026-04-30 21:01 49.85201 -121.19479 34174 ft 413 kts 240°
2026-04-30 21:02 49.80865 -121.30907 34182 ft 412 kts 240°
2026-04-30 21:02 49.77994 -121.38512 34181 ft 410 kts 240°
2026-04-30 21:03 49.75088 -121.46070 34182 ft 411 kts 239°
2026-04-30 21:03 49.72211 -121.53459 34163 ft 389 kts 239°
2026-04-30 21:03 49.70832 -121.57000 33922 ft 380 kts 239°
2026-04-30 21:04 49.69465 -121.60505 33531 ft 384 kts 239°
2026-04-30 21:04 49.68082 -121.64050 33088 ft 389 kts 239°
2026-04-30 21:04 49.65306 -121.71172 32179 ft 383 kts 238°
2026-04-30 21:05 49.64014 -121.74483 31759 ft 379 kts 238°
2026-04-30 21:05 49.62694 -121.77860 31328 ft 375 kts 239°
2026-04-30 21:05 49.61350 -121.81299 30885 ft 371 kts 239°
2026-04-30 21:05 49.60021 -121.84693 30445 ft 367 kts 239°
2026-04-30 21:06 49.58715 -121.88026 30027 ft 363 kts 239°
2026-04-30 21:06 49.57421 -121.91320 29610 ft 360 kts 239°
2026-04-30 21:06 49.56128 -121.94611 29182 ft 357 kts 238°
2026-04-30 21:06 49.54862 -121.97832 28763 ft 354 kts 238°
2026-04-30 21:07 49.53581 -122.01083 28334 ft 351 kts 238°
2026-04-30 21:07 49.52341 -122.04227 27922 ft 348 kts 238°
2026-04-30 21:07 49.51086 -122.07400 27510 ft 345 kts 238°
2026-04-30 21:07 49.49847 -122.10521 27096 ft 342 kts 238°
2026-04-30 21:08 49.48620 -122.13607 26700 ft 338 kts 238°
2026-04-30 21:08 49.47405 -122.16660 26296 ft 335 kts 238°
2026-04-30 21:08 49.46177 -122.19737 25891 ft 333 kts 238°
2026-04-30 21:08 49.44960 -122.22783 25495 ft 338 kts 237°
2026-04-30 21:09 49.43736 -122.25840 25085 ft 341 kts 237°
2026-04-30 21:09 49.42488 -122.28958 24669 ft 338 kts 237°
2026-04-30 21:09 49.41285 -122.31963 24269 ft 335 kts 237°
2026-04-30 21:09 49.40057 -122.35029 23866 ft 331 kts 237°
2026-04-30 21:10 49.38871 -122.37994 23475 ft 328 kts 237°
2026-04-30 21:10 49.37688 -122.40964 23089 ft 326 kts 237°
2026-04-30 21:10 49.36508 -122.43922 22684 ft 323 kts 237°
2026-04-30 21:10 49.35350 -122.46825 22311 ft 316 kts 237°
2026-04-30 21:11 49.34192 -122.49721 21940 ft 320 kts 237°
2026-04-30 21:11 49.33025 -122.52633 21550 ft 324 kts 237°
2026-04-30 21:11 49.31857 -122.55548 21156 ft 318 kts 237°
2026-04-30 21:11 49.30727 -122.58370 20773 ft 310 kts 237°
2026-04-30 21:12 49.29606 -122.61165 20371 ft 309 kts 236°
2026-04-30 21:12 49.28455 -122.64021 19936 ft 317 kts 236°
2026-04-30 21:12 49.27298 -122.66885 19435 ft 316 kts 236°
2026-04-30 21:12 49.26194 -122.69620 19055 ft 309 kts 235°
2026-04-30 21:13 49.25164 -122.72169 18750 ft 301 kts 235°
2026-04-30 21:13 49.24154 -122.74662 18423 ft 303 kts 235°
2026-04-30 21:13 49.23028 -122.77431 18048 ft 309 kts 235°
2026-04-30 21:13 49.21892 -122.80226 17667 ft 304 kts 236°
2026-04-30 21:14 49.20798 -122.82922 17304 ft 296 kts 236°
2026-04-30 21:14 49.19726 -122.85560 16860 ft 297 kts 236°
2026-04-30 21:14 49.18635 -122.88242 16478 ft 299 kts 236°
2026-04-30 21:14 49.17522 -122.90977 16099 ft 297 kts 236°
2026-04-30 21:15 49.16454 -122.93600 15754 ft 290 kts 236°
2026-04-30 21:15 49.15408 -122.96166 15404 ft 286 kts 236°
2026-04-30 21:15 49.14327 -122.98808 15044 ft 293 kts 236°
2026-04-30 21:15 49.13257 -123.01424 14685 ft 290 kts 236°
2026-04-30 21:16 49.12207 -123.03995 14324 ft 283 kts 236°
2026-04-30 21:16 49.11166 -123.06536 13985 ft 284 kts 236°
2026-04-30 21:16 49.10107 -123.09115 13642 ft 290 kts 236°
2026-04-30 21:16 49.09003 -123.11632 13278 ft 284 kts 230°
2026-04-30 21:17 49.07597 -123.13619 13037 ft 274 kts 209°
2026-04-30 21:17 49.05822 -123.14567 12798 ft 272 kts 189°
2026-04-30 21:17 49.03906 -123.14675 12203 ft 276 kts 179°
2026-04-30 21:17 49.02003 -123.14528 11737 ft 275 kts 178°
2026-04-30 21:18 49.00111 -123.14362 11249 ft 273 kts 178°
2026-04-30 21:18 48.98223 -123.14209 10847 ft 271 kts 178°
2026-04-30 21:18 48.96339 -123.14066 10320 ft 270 kts 178°
2026-04-30 21:18 48.94482 -123.13930 9836 ft 268 kts 178°
2026-04-30 21:19 48.92633 -123.13796 9416 ft 265 kts 178°
2026-04-30 21:19 48.90791 -123.13661 8943 ft 263 kts 177°
2026-04-30 21:19 48.88980 -123.13528 8456 ft 262 kts 177°
2026-04-30 21:19 48.87238 -123.13402 8006 ft 261 kts 177°
2026-04-30 21:20 48.85613 -123.13283 7634 ft 258 kts 177°
2026-04-30 21:20 48.83833 -123.13152 7166 ft 258 kts 177°
2026-04-30 21:20 48.82106 -123.13026 6759 ft 255 kts 178°
2026-04-30 21:20 48.80384 -123.12899 6613 ft 239 kts 178°
2026-04-30 21:21 48.78769 -123.12780 6466 ft 225 kts 178°
2026-04-30 21:21 48.77245 -123.12669 6340 ft 212 kts 178°
2026-04-30 21:21 48.74448 -123.12468 5901 ft 198 kts 178°
2026-04-30 21:22 48.73071 -123.12369 5571 ft 198 kts 177°
2026-04-30 21:22 48.68965 -123.12071 4876 ft 197 kts 177°
2026-04-30 21:23 48.67574 -123.12191 4611 ft 201 kts 191°
2026-04-30 21:23 48.66220 -123.12793 4184 ft 206 kts 198°
2026-04-30 21:23 48.63456 -123.14123 3422 ft 207 kts 196°
2026-04-30 21:24 48.62254 -123.14661 3140 ft 206 kts 196°
2026-04-30 21:24 48.60881 -123.15284 2784 ft 205 kts 196°
2026-04-30 21:24 48.59523 -123.15900 2555 ft 199 kts 196°
2026-04-30 21:24 48.58216 -123.16487 2365 ft 194 kts 196°
2026-04-30 21:25 48.55618 -123.17149 2329 ft 198 kts 165°
2026-04-30 21:25 48.54480 -123.16058 2337 ft 198 kts 127°
2026-04-30 21:25 48.54018 -123.14146 2337 ft 196 kts 89°
2026-04-30 21:26 48.55541 -123.11101 2343 ft 195 kts 19°
2026-04-30 21:26 48.56847 -123.10584 2337 ft 195 kts 10°
2026-04-30 21:27 48.59378 -123.11620 2336 ft 198 kts 310°
2026-04-30 21:27 48.59960 -123.13473 2344 ft 198 kts 286°
2026-04-30 21:27 48.60305 -123.15475 2341 ft 197 kts 285°
2026-04-30 21:28 48.60836 -123.19524 2342 ft 198 kts 275°
2026-04-30 21:28 48.60936 -123.21590 2336 ft 197 kts 277°
2026-04-30 21:28 48.61534 -123.25547 2336 ft 198 kts 285°
2026-04-30 21:29 48.61888 -123.27571 2191 ft 199 kts 285°
2026-04-30 21:29 48.63151 -123.33512 1072 ft 189 kts 285°
2026-04-30 21:30 48.63867 -123.37024 614 ft 175 kts 288°
2026-04-30 21:31 48.64912 -123.42501 498 ft 193 kts 287°
2026-04-30 21:31 48.65659 -123.46445 1761 ft 196 kts 285°
2026-04-30 21:32 48.66294 -123.50466 2951 ft 201 kts 284°